<?xml version="1.0" encoding="utf-8"?>
<gpx xmlns:xsi="http://www.w3.org/2001/XMLSchema-instance" xmlns:xsd="http://www.w3.org/2001/XMLSchema" version="1.1" creator="Shapelink.com" xmlns="http://www.topografix.com/GPX/1/1" xmlns:gpxtpx="http://www.garmin.com/xmlschemas/TrackPointExtension/v1">
  <metadata>
    <name>Gåing 1.41 km, 2014-04-19</name>
    <desc></desc>
    <author><name>Alexander Engvall</name></author> 
    <time>1970-01-01T01:00:00Z</time>
  </metadata>
  <trk>
    <name>Gåing 1.41 km, 2014-04-19</name>
    <trkseg>
      <trkpt lat="62.828198" lon="14.431477">
        <ele>542.429</ele>
        <time>1970-01-01T01:00:00Z</time>
      </trkpt>
      <trkpt lat="62.828115" lon="14.431495">
        <ele>542.25</ele>
        <time>1970-01-01T01:00:00Z</time>
      </trkpt>
      <trkpt lat="62.828028" lon="14.431481">
        <ele>542.111</ele>
        <time>1970-01-01T01:00:00Z</time>
      </trkpt>
      <trkpt lat="62.827948" lon="14.431532">
        <ele>542</ele>
        <time>1970-01-01T01:00:00Z</time>
      </trkpt>
      <trkpt lat="62.827882" lon="14.431638">
        <ele>541.909</ele>
        <time>1970-01-01T01:00:00Z</time>
      </trkpt>
      <trkpt lat="62.827803" lon="14.431716">
        <ele>541.727</ele>
        <time>1970-01-01T01:00:00Z</time>
      </trkpt>
      <trkpt lat="62.82772" lon="14.431736">
        <ele>541.818</ele>
        <time>1970-01-01T01:00:00Z</time>
      </trkpt>
      <trkpt lat="62.827645" lon="14.431839">
        <ele>541.909</ele>
        <time>1970-01-01T01:00:00Z</time>
      </trkpt>
      <trkpt lat="62.827586" lon="14.431966">
        <ele>542</ele>
        <time>1970-01-01T01:00:00Z</time>
      </trkpt>
      <trkpt lat="62.827532" lon="14.432099">
        <ele>542.091</ele>
        <time>1970-01-01T01:00:00Z</time>
      </trkpt>
      <trkpt lat="62.827464" lon="14.432203">
        <ele>541.455</ele>
        <time>1970-01-01T01:00:00Z</time>
      </trkpt>
      <trkpt lat="62.827382" lon="14.432221">
        <ele>540.818</ele>
        <time>1970-01-01T01:00:00Z</time>
      </trkpt>
      <trkpt lat="62.827308" lon="14.432329">
        <ele>540.182</ele>
        <time>1970-01-01T01:00:00Z</time>
      </trkpt>
      <trkpt lat="62.827224" lon="14.432347">
        <ele>539.545</ele>
        <time>1970-01-01T01:00:00Z</time>
      </trkpt>
      <trkpt lat="62.827142" lon="14.432392">
        <ele>538.909</ele>
        <time>1970-01-01T01:00:00Z</time>
      </trkpt>
      <trkpt lat="62.827061" lon="14.432374">
        <ele>538.273</ele>
        <time>1970-01-01T01:00:00Z</time>
      </trkpt>
      <trkpt lat="62.82698" lon="14.432327">
        <ele>537.636</ele>
        <time>1970-01-01T01:00:00Z</time>
      </trkpt>
      <trkpt lat="62.826898" lon="14.43231">
        <ele>536.727</ele>
        <time>1970-01-01T01:00:00Z</time>
      </trkpt>
      <trkpt lat="62.826829" lon="14.432409">
        <ele>535.818</ele>
        <time>1970-01-01T01:00:00Z</time>
      </trkpt>
      <trkpt lat="62.826748" lon="14.432444">
        <ele>534.909</ele>
        <time>1970-01-01T01:00:00Z</time>
      </trkpt>
      <trkpt lat="62.826666" lon="14.432454">
        <ele>531.091</ele>
        <time>1970-01-01T01:00:00Z</time>
      </trkpt>
      <trkpt lat="62.826585" lon="14.432419">
        <ele>528.182</ele>
        <time>1970-01-01T01:00:00Z</time>
      </trkpt>
      <trkpt lat="62.826497" lon="14.432467">
        <ele>525.273</ele>
        <time>1970-01-01T01:00:00Z</time>
      </trkpt>
      <trkpt lat="62.82642" lon="14.432537">
        <ele>522.364</ele>
        <time>1970-01-01T01:00:00Z</time>
      </trkpt>
      <trkpt lat="62.826347" lon="14.432615">
        <ele>519.455</ele>
        <time>1970-01-01T01:00:00Z</time>
      </trkpt>
      <trkpt lat="62.826264" lon="14.432627">
        <ele>517</ele>
        <time>1970-01-01T01:00:00Z</time>
      </trkpt>
      <trkpt lat="62.82619" lon="14.432705">
        <ele>514.545</ele>
        <time>1970-01-01T01:00:00Z</time>
      </trkpt>
      <trkpt lat="62.826123" lon="14.432813">
        <ele>512.091</ele>
        <time>1970-01-01T01:00:00Z</time>
      </trkpt>
      <trkpt lat="62.826057" lon="14.432922">
        <ele>509.636</ele>
        <time>1970-01-01T01:00:00Z</time>
      </trkpt>
      <trkpt lat="62.825977" lon="14.432971">
        <ele>507.182</ele>
        <time>1970-01-01T01:00:00Z</time>
      </trkpt>
      <trkpt lat="62.8259" lon="14.433058">
        <ele>504.727</ele>
        <time>1970-01-01T01:00:00Z</time>
      </trkpt>
      <trkpt lat="62.825833" lon="14.433179">
        <ele>505.182</ele>
        <time>1970-01-01T01:00:00Z</time>
      </trkpt>
      <trkpt lat="62.825763" lon="14.43328">
        <ele>501.909</ele>
        <time>1970-01-01T01:00:00Z</time>
      </trkpt>
      <trkpt lat="62.825698" lon="14.433412">
        <ele>498.636</ele>
        <time>1970-01-01T01:00:00Z</time>
      </trkpt>
      <trkpt lat="62.825632" lon="14.433524">
        <ele>495.364</ele>
        <time>1970-01-01T01:00:00Z</time>
      </trkpt>
      <trkpt lat="62.825579" lon="14.433661">
        <ele>492.091</ele>
        <time>1970-01-01T01:00:00Z</time>
      </trkpt>
      <trkpt lat="62.82552" lon="14.433787">
        <ele>488.364</ele>
        <time>1970-01-01T01:00:00Z</time>
      </trkpt>
      <trkpt lat="62.825463" lon="14.433918">
        <ele>484.636</ele>
        <time>1970-01-01T01:00:00Z</time>
      </trkpt>
      <trkpt lat="62.825441" lon="14.434089">
        <ele>480.909</ele>
        <time>1970-01-01T01:00:00Z</time>
      </trkpt>
      <trkpt lat="62.825393" lon="14.434242">
        <ele>477</ele>
        <time>1970-01-01T01:00:00Z</time>
      </trkpt>
      <trkpt lat="62.825308" lon="14.434338">
        <ele>473.091</ele>
        <time>1970-01-01T01:00:00Z</time>
      </trkpt>
      <trkpt lat="62.825239" lon="14.434433">
        <ele>469.182</ele>
        <time>1970-01-01T01:00:00Z</time>
      </trkpt>
      <trkpt lat="62.825158" lon="14.434486">
        <ele>465.273</ele>
        <time>1970-01-01T01:00:00Z</time>
      </trkpt>
      <trkpt lat="62.82508" lon="14.434581">
        <ele>465.091</ele>
        <time>1970-01-01T01:00:00Z</time>
      </trkpt>
      <trkpt lat="62.825031" lon="14.43473">
        <ele>464.909</ele>
        <time>1970-01-01T01:00:00Z</time>
      </trkpt>
      <trkpt lat="62.824942" lon="14.434777">
        <ele>463.909</ele>
        <time>1970-01-01T01:00:00Z</time>
      </trkpt>
      <trkpt lat="62.824883" lon="14.434899">
        <ele>462.909</ele>
        <time>1970-01-01T01:00:00Z</time>
      </trkpt>
      <trkpt lat="62.824854" lon="14.435076">
        <ele>461.909</ele>
        <time>1970-01-01T01:00:00Z</time>
      </trkpt>
      <trkpt lat="62.824787" lon="14.435215">
        <ele>460.909</ele>
        <time>1970-01-01T01:00:00Z</time>
      </trkpt>
      <trkpt lat="62.824771" lon="14.435391">
        <ele>459.909</ele>
        <time>1970-01-01T01:00:00Z</time>
      </trkpt>
      <trkpt lat="62.824796" lon="14.435575">
        <ele>455.182</ele>
        <time>1970-01-01T01:00:00Z</time>
      </trkpt>
      <trkpt lat="62.82478" lon="14.435757">
        <ele>450.455</ele>
        <time>1970-01-01T01:00:00Z</time>
      </trkpt>
      <trkpt lat="62.824727" lon="14.43589">
        <ele>445.727</ele>
        <time>1970-01-01T01:00:00Z</time>
      </trkpt>
      <trkpt lat="62.824702" lon="14.436069">
        <ele>441</ele>
        <time>1970-01-01T01:00:00Z</time>
      </trkpt>
      <trkpt lat="62.824657" lon="14.436231">
        <ele>436.273</ele>
        <time>1970-01-01T01:00:00Z</time>
      </trkpt>
      <trkpt lat="62.824603" lon="14.43637">
        <ele>431.545</ele>
        <time>1970-01-01T01:00:00Z</time>
      </trkpt>
      <trkpt lat="62.824573" lon="14.436534">
        <ele>427.818</ele>
        <time>1970-01-01T01:00:00Z</time>
      </trkpt>
      <trkpt lat="62.824496" lon="14.436654">
        <ele>424.091</ele>
        <time>1970-01-01T01:00:00Z</time>
      </trkpt>
      <trkpt lat="62.824455" lon="14.436814">
        <ele>420.364</ele>
        <time>1970-01-01T01:00:00Z</time>
      </trkpt>
      <trkpt lat="62.824407" lon="14.436965">
        <ele>416.636</ele>
        <time>1970-01-01T01:00:00Z</time>
      </trkpt>
      <trkpt lat="62.824344" lon="14.437101">
        <ele>412.909</ele>
        <time>1970-01-01T01:00:00Z</time>
      </trkpt>
      <trkpt lat="62.824284" lon="14.437259">
        <ele>413.909</ele>
        <time>1970-01-01T01:00:00Z</time>
      </trkpt>
      <trkpt lat="62.824235" lon="14.437411">
        <ele>414.909</ele>
        <time>1970-01-01T01:00:00Z</time>
      </trkpt>
      <trkpt lat="62.824202" lon="14.437584">
        <ele>415.909</ele>
        <time>1970-01-01T01:00:00Z</time>
      </trkpt>
      <trkpt lat="62.824192" lon="14.437765">
        <ele>416.909</ele>
        <time>1970-01-01T01:00:00Z</time>
      </trkpt>
      <trkpt lat="62.824139" lon="14.437906">
        <ele>417.909</ele>
        <time>1970-01-01T01:00:00Z</time>
      </trkpt>
      <trkpt lat="62.824115" lon="14.438081">
        <ele>418.909</ele>
        <time>1970-01-01T01:00:00Z</time>
      </trkpt>
      <trkpt lat="62.824088" lon="14.438249">
        <ele>419.4</ele>
        <time>1970-01-01T01:00:00Z</time>
      </trkpt>
      <trkpt lat="62.824065" lon="14.438437">
        <ele>420</ele>
        <time>1970-01-01T01:00:00Z</time>
      </trkpt>
      <trkpt lat="62.824" lon="14.438574">
        <ele>420.75</ele>
        <time>1970-01-01T01:00:00Z</time>
      </trkpt>
      <trkpt lat="62.823981" lon="14.438759">
        <ele>421.714</ele>
        <time>1970-01-01T01:00:00Z</time>
      </trkpt>
      <trkpt lat="62.823981" lon="14.438759">
        <ele>423</ele>
        <time>1970-01-01T01:00:00Z</time>
      </trkpt>
      <trkpt lat="62.823981" lon="14.438759">
        <ele>418.833</ele>
        <time>1970-01-01T01:00:00Z</time>
      </trkpt>
      <trkpt lat="62.823938" lon="14.438912">
        <ele>415.857</ele>
        <time>1970-01-01T01:00:00Z</time>
      </trkpt>
      <trkpt lat="62.823869" lon="14.43903">
        <ele>414.125</ele>
        <time>1970-01-01T01:00:00Z</time>
      </trkpt>
      <trkpt lat="62.823831" lon="14.43919">
        <ele>412.778</ele>
        <time>1970-01-01T01:00:00Z</time>
      </trkpt>
      <trkpt lat="62.823787" lon="14.439349">
        <ele>411.7</ele>
        <time>1970-01-01T01:00:00Z</time>
      </trkpt>
      <trkpt lat="62.823738" lon="14.439494">
        <ele>410.818</ele>
        <time>1970-01-01T01:00:00Z</time>
      </trkpt>
      <trkpt lat="62.823658" lon="14.439593">
        <ele>408.909</ele>
        <time>1970-01-01T01:00:00Z</time>
      </trkpt>
      <trkpt lat="62.823607" lon="14.439762">
        <ele>407</ele>
        <time>1970-01-01T01:00:00Z</time>
      </trkpt>
      <trkpt lat="62.823559" lon="14.439912">
        <ele>405.4</ele>
        <time>1970-01-01T01:00:00Z</time>
      </trkpt>
      <trkpt lat="62.823517" lon="14.440077">
        <ele>403.444</ele>
        <time>1970-01-01T01:00:00Z</time>
      </trkpt>
      <trkpt lat="62.823434" lon="14.440109">
        <ele>401</ele>
        <time>1970-01-01T01:00:00Z</time>
      </trkpt>
      <trkpt lat="62.823356" lon="14.440154">
        <ele>401.429</ele>
        <time>1970-01-01T01:00:00Z</time>
      </trkpt>
      <trkpt lat="62.823356" lon="14.440154">
        <ele>402</ele>
        <time>1970-01-01T01:00:00Z</time>
      </trkpt>
    </trkseg>
  </trk>
</gpx>